Location: Moydans
(44.3997°N, 5.5038°E)
Time: 02:46:28
(UTC+02:00)

Nauka - Pass Details

Date: 01 October 2021
Orbit: 417 x 423 km, 51.6° (Epoch: 24 October)

Event Time Altitude Azimuth Distance (km) Brightness Sun altitude
Rises 20:15:19 0° 301° (WNW) 2,364 ? -11.0°
Reaches altitude 10° 20:17:30 10° 310° (NW) 1,499 ? -11.4°
Maximum altitude 20:20:41 39° 21° (NNE) 644 ? -11.9°
Enters shadow 20:22:34 20° 80° (E) 1,029 ? -12.3°
